When you browse on this site, cookies collect data to enhance your experience and personalize the content and advertising you see.
Visit our Privacy Policy to learn more. By continuing to use the site, you agree to this use of cookies and data.
  • In Italy
  • List of Countries
  • For 7 days
  • Water Temperature
  • Satellite Maps
  • Weather Map
  • Weather Widgets
  • user-avatar
    Login

    Hourly Weather Laszkar Gah

    Today, 12 December, Wednesday

    Time Temperature Precipitation Wind Pressure Humidity
    00:00 +11°C° 0 mm 1 mps 695 mmHg 41%
    01:00 +11°C° 0 mm 1 mps 695 mmHg 42%
    02:00 +10°C° 0 mm 1 mps 695 mmHg 43%
    03:00 +10°C° 0 mm 1 mps 695 mmHg 44%
    04:00 +10°C° 0 mm 1 mps 695 mmHg 45%
    05:00 +10°C° 0 mm 1 mps 695 mmHg 45%
    06:00 +9°C° 0 mm 1 mps 696 mmHg 46%
    07:00 +9°C° 0 mm 1 mps 696 mmHg 47%
    08:00 +11°C° 0 mm 1 mps 697 mmHg 42%
    09:00 +13°C° 0 mm 1 mps 698 mmHg 37%
    10:00 +14°C° 0 mm 1 mps 698 mmHg 32%
    11:00 +15°C° 0 mm 1 mps 698 mmHg 30%
    12:00 +16°C° 0 mm 1 mps 698 mmHg 28%
    13:00 +16°C° 0 mm 1 mps 697 mmHg 26%
    14:00 +16°C° 0 mm 1 mps 697 mmHg 26%
    15:00 +16°C° 0 mm 1 mps 697 mmHg 26%
    16:00 +16°C° 0 mm 1 mps 697 mmHg 26%
    17:00 +15°C° 0 mm 1 mps 698 mmHg 29%
    18:00 +14°C° 0 mm 1 mps 698 mmHg 32%
    19:00 +12°C° 0 mm 0 mps 698 mmHg 34%
    20:00 +12°C° 0 mm 0 mps 698 mmHg 35%
    21:00 +12°C° 0 mm 1 mps 698 mmHg 36%
    22:00 +12°C° 0 mm 1 mps 698 mmHg 37%
    23:00 +11°C° 0 mm 1 mps 698 mmHg 38%

    Tomorrow, 13 December, Thursday

    Time Temperature Precipitation Wind Pressure Humidity
    00:00 +11°C° 0 mm 1 mps 698 mmHg 39%
    01:00 +11°C° 0 mm 1 mps 698 mmHg 39%
    02:00 +11°C° 0 mm 1 mps 698 mmHg 40%
    03:00 +10°C° 0 mm 1 mps 697 mmHg 40%
    04:00 +10°C° 0 mm 1 mps 697 mmHg 41%
    05:00 +9°C° 0 mm 2 mps 698 mmHg 41%
    06:00 +9°C° 0 mm 2 mps 698 mmHg 41%
    07:00 +9°C° 0 mm 2 mps 698 mmHg 41%
    08:00 +10°C° 0 mm 2 mps 699 mmHg 37%
    09:00 +13°C° 0 mm 2 mps 700 mmHg 32%
    10:00 +15°C° 0 mm 2 mps 700 mmHg 28%
    11:00 +16°C° 0 mm 1 mps 700 mmHg 26%
    12:00 +16°C° 0 mm 1 mps 699 mmHg 25%
    13:00 +18°C° 0 mm 1 mps 699 mmHg 23%
    14:00 +18°C° 0 mm 1 mps 699 mmHg 23%
    15:00 +18°C° 0 mm 1 mps 698 mmHg 23%
    16:00 +16°C° 0 mm 0 mps 698 mmHg 24%
    17:00 +16°C° 0 mm 1 mps 698 mmHg 25%
    18:00 +15°C° 0 mm 1 mps 698 mmHg 27%
    19:00 +14°C° 0 mm 2 mps 699 mmHg 28%
    20:00 +13°C° 0 mm 2 mps 699 mmHg 28%
    21:00 +13°C° 0 mm 2 mps 699 mmHg 28%
    22:00 +13°C° 0 mm 2 mps 699 mmHg 28%
    23:00 +11°C° 0 mm 3 mps 698 mmHg 29%

    Day after tomorrow, 14 December, Friday

    Time Temperature Precipitation Wind Pressure Humidity
    00:00 +11°C° 0 mm 3 mps 698 mmHg 30%
    01:00 +11°C° 0 mm 3 mps 698 mmHg 30%
    02:00 +10°C° 0 mm 3 mps 698 mmHg 31%
    03:00 +10°C° 0 mm 3 mps 698 mmHg 32%
    04:00 +10°C° 0 mm 3 mps 697 mmHg 32%
    05:00 +9°C° 0 mm 3 mps 698 mmHg 33%
    06:00 +9°C° 0 mm 3 mps 698 mmHg 33%
    07:00 +9°C° 0 mm 3 mps 698 mmHg 33%
    08:00 +12°C° 0 mm 2 mps 699 mmHg 29%
    09:00 +14°C° 0 mm 2 mps 699 mmHg 26%
    10:00 +16°C° 0 mm 2 mps 700 mmHg 22%
    11:00 +17°C° 0 mm 2 mps 700 mmHg 20%
    12:00 +18°C° 0 mm 1 mps 699 mmHg 19%
    13:00 +19°C° 0 mm 1 mps 699 mmHg 17%
    14:00 +19°C° 0 mm 1 mps 699 mmHg 18%
    15:00 +19°C° 0 mm 1 mps 699 mmHg 19%
    16:00 +16°C° 0 mm 0 mps 698 mmHg 19%
    17:00 +16°C° 0 mm 1 mps 699 mmHg 21%
    18:00 +15°C° 0 mm 1 mps 699 mmHg 22%
    19:00 +14°C° 0 mm 1 mps 699 mmHg 23%
    20:00 +14°C° 0 mm 1 mps 699 mmHg 23%
    21:00 +13°C° 0 mm 2 mps 699 mmHg 24%
    22:00 +13°C° 0 mm 2 mps 699 mmHg 24%
    23:00 +13°C° 0 mm 2 mps 699 mmHg 24%

    15 December, Saturday

    Time Temperature Precipitation Wind Pressure Humidity
    00:00 +12°C° 0 mm 2 mps 698 mmHg 25%
    01:00 +12°C° 0 mm 2 mps 698 mmHg 25%
    02:00 +12°C° 0 mm 2 mps 698 mmHg 26%
    03:00 +10°C° 0 mm 2 mps 698 mmHg 26%
    04:00 +10°C° 0 mm 2 mps 697 mmHg 27%
    05:00 +10°C° 0 mm 2 mps 698 mmHg 27%
    06:00 +10°C° 0 mm 2 mps 698 mmHg 27%
    07:00 +10°C° 0 mm 2 mps 698 mmHg 27%
    08:00 +12°C° 0 mm 2 mps 699 mmHg 24%
    09:00 +14°C° 0 mm 2 mps 699 mmHg 21%
    10:00 +16°C° 0 mm 2 mps 700 mmHg 18%
    11:00 +17°C° 0 mm 2 mps 700 mmHg 16%
    12:00 +18°C° 0 mm 2 mps 699 mmHg 15%
    13:00 +20°C° 0 mm 1 mps 699 mmHg 14%
    14:00 +19°C° 0 mm 1 mps 699 mmHg 15%
    15:00 +19°C° 0 mm 1 mps 699 mmHg 15%
    16:00 +19°C° 0 mm 1 mps 698 mmHg 16%
    17:00 +18°C° 0 mm 1 mps 699 mmHg 18%
    18:00 +15°C° 0 mm 1 mps 699 mmHg 19%
    19:00 +14°C° 0 mm 1 mps 699 mmHg 20%
    20:00 +14°C° 0 mm 1 mps 699 mmHg 20%
    21:00 +13°C° 0 mm 1 mps 699 mmHg 21%
    22:00 +13°C° 0 mm 1 mps 699 mmHg 21%
    23:00 +12°C° 0 mm 1 mps 699 mmHg 21%

    16 December, Sunday

    Time Temperature Precipitation Wind Pressure Humidity
    00:00 +12°C° 0 mm 1 mps 698 mmHg 21%
    01:00 +11°C° 0 mm 1 mps 698 mmHg 22%
    02:00 +11°C° 0 mm 1 mps 698 mmHg 22%
    03:00 +11°C° 0 mm 1 mps 698 mmHg 22%
    04:00 +11°C° 0 mm 1 mps 698 mmHg 23%
    05:00 +10°C° 0 mm 1 mps 698 mmHg 23%
    06:00 +10°C° 0 mm 1 mps 699 mmHg 23%
    07:00 +10°C° 0 mm 1 mps 699 mmHg 23%
    08:00 +12°C° 0 mm 1 mps 700 mmHg 20%
    09:00 +14°C° 0 mm 1 mps 701 mmHg 17%
    10:00 +18°C° 0 mm 1 mps 701 mmHg 14%
    11:00 +18°C° 0 mm 1 mps 701 mmHg 14%
    12:00 +19°C° 0 mm 1 mps 700 mmHg 13%
    13:00 +20°C° 0 mm 1 mps 700 mmHg 12%
    14:00 +19°C° 0 mm 1 mps 700 mmHg 13%
    15:00 +19°C° 0 mm 1 mps 700 mmHg 14%
    16:00 +18°C° 0 mm 2 mps 699 mmHg 15%
    17:00 +17°C° 0 mm 2 mps 699 mmHg 17%
    18:00 +16°C° 0 mm 2 mps 700 mmHg 19%
    19:00 +14°C° 0 mm 2 mps 700 mmHg 22%
    20:00 +14°C° 0 mm 2 mps 700 mmHg 24%
    21:00 +13°C° 0 mm 2 mps 700 mmHg 26%
    22:00 +13°C° 0 mm 2 mps 700 mmHg 28%
    23:00 +12°C° 0 mm 2 mps 699 mmHg 30%

    17 December, Monday

    Time Temperature Precipitation Wind Pressure Humidity
    00:00 +12°C° 0 mm 1 mps 699 mmHg 32%
    01:00 +11°C° 0 mm 1 mps 699 mmHg 33%
    02:00 +11°C° 0 mm 1 mps 699 mmHg 34%
    03:00 +10°C° 0 mm 1 mps 699 mmHg 35%
    04:00 +10°C° 0 mm 1 mps 698 mmHg 37%
    05:00 +10°C° 0 mm 1 mps 699 mmHg 37%
    06:00 +10°C° 0 mm 1 mps 699 mmHg 38%
    07:00 +9°C° 0 mm 1 mps 699 mmHg 39%
    08:00 +11°C° 0 mm 1 mps 700 mmHg 35%
    09:00 +13°C° 0 mm 2 mps 701 mmHg 32%
    10:00 +15°C° 0 mm 2 mps 701 mmHg 28%
    11:00 +16°C° 0 mm 2 mps 701 mmHg 26%
    12:00 +16°C° 0 mm 2 mps 700 mmHg 25%
    13:00 +17°C° 0 mm 2 mps 700 mmHg 23%
    14:00 +17°C° 0 mm 2 mps 700 mmHg 23%
    15:00 +17°C° 0 mm 2 mps 699 mmHg 24%
    16:00 +17°C° 0 mm 2 mps 699 mmHg 24%
    17:00 +16°C° 0 mm 2 mps 699 mmHg 27%
    18:00 +15°C° 0 mm 2 mps 700 mmHg 29%
    19:00 +14°C° 0 mm 2 mps 700 mmHg 32%
    20:00 +13°C° 0 mm 2 mps 700 mmHg 34%
    21:00 +12°C° 0 mm 1 mps 700 mmHg 35%
    22:00 +12°C° 0 mm 1 mps 699 mmHg 37%
    23:00 +11°C° 0 mm 1 mps 699 mmHg 39%
    Show more